ORBCOMM FM112 (41184 NORAD) Tracking and Keplerian Element Data

This shows tracking and keplerian element data for the satellite.

Feedback or suggestion? Click here.




ElementValue
Catalog41184
NameORBCOMM FM112
Epoch Orbit48631
Epoch Day35.22795136
Epoch Year2025
RAAN103.12
Inclination46.9979
Eccentricity8.02E-05
Argument of Perigee219.6587
Mean Anonmoly140.424
Mean Motion14.57745426
Decay Rate2.485E-05
L11 41184U 15081F 25035.22795136 .00002485 00000+0 57504-3 0 9995
L22 41184 46.9979 103.1200 0000802 219.6587 140.4240 14.57745426486311



Live tracking and technical data element details for ORBCOMM FM112 (NORAD 41184). ORBCOMM FM112 can be tracked NOW for your location showing map with azimuth and elevation plus other details from your city location.







IsCatalogInMostPopularTable: catalog: 41184, numindb: 583
Update: records affected: 1



GetName: 41184 ORBCOMM FM112

Hit Count: updated at: Thu, 15 May 2025 19:55:55 GMT